This demonstration page uses our WeatherBlox Daily Observations layout. Learn more.

Left ArrowRight Arrow

41.86663, -103.66717

Hourly Observations for June 5, 2020

Temp ( °F °C ) Dew Point ( °F °C ) Humidity (%) Winds ( mph kmh ) Pressure ( in mb ) Visibility ( mi km ) Precip ( " mm )
12:53 am 00:53 Clear 65 18.3 56 13.3 73 73 ENE 17 28 29.76 1008 10 16 0.00 0.00
1:53 am 01:53 Clear 63 17.2 56 13.3 78 78 S 6 9 29.78 1009 10 16 0.00 0.00
2:53 am 02:53 Clear 59 15 55 12.8 87 87 Calm 29.80 1009 10 16 0.00 0.00
3:53 am 03:53 Clear 59 15 57 13.9 93 93 Calm 29.81 1009 10 16 0.00 0.00
4:53 am 04:53 Clear 55 12.8 54 12.2 96 96 NNW 6 9 29.84 1011 10 16 0.00 0.00
5:53 am 05:53 Sunny 56 13.3 54 12.2 93 93 N 7 11 29.87 1012 8 13 0.00 0.00
6:53 am 06:53 Sunny 63 17.2 58 14.4 84 84 NNE 6 9 29.90 1013 10 16 0.00 0.00
7:53 am 07:53 Sunny 68 20 57 13.9 68 68 ENE 13 20 29.90 1012 10 16 0.00 0.00
8:53 am 08:53 Sunny 71 21.7 58 14.4 63 63 E 13 20 29.91 1013 10 16 0.00 0.00
9:53 am 09:53 Sunny 74 23.3 58 14.4 57 57 E 9 15 29.91 1013 10 16 0.00 0.00
10:53 am 10:53 Sunny 77 25 58 14.4 52 52 ESE 12 19 29.90 1013 10 16 0.00 0.00
11:53 am 11:53 Sunny 80 26.7 59 15 49 49 S 10 17 29.88 1012 10 16 0.00 0.00
12:53 pm 12:53 Sunny 84 28.9 58 14.4 41 41 ESE 7 11 29.85 1011 10 16 0.00 0.00
1:53 pm 13:53 Sunny 86 30 55 12.8 35 35 SE 12 19 29.83 1010 10 16 0.00 0.00
2:53 pm 14:53 Sunny 90 32.2 50 10 25 25 SSE 10 17 29.82 1010 10 16 0.00 0.00
3:53 pm 15:53 Sunny 92 33.3 53 11.7 27 27 SE 14 22 29.78 1009 10 16 0.00 0.00
4:53 pm 16:53 Sunny 91 32.8 54 12.2 28 28 ESE 14 22 29.78 1008 10 16 0.00 0.00
5:53 pm 17:53 Sunny 92 33.3 51 10.6 25 25 ESE 18 30 29.73 1007 10 16 0.00 0.00
6:53 pm 18:53 Sunny 89 31.7 53 11.7 29 29 SE 20 31 29.72 1006 10 16 0.00 0.00
7:53 pm 19:53 Sunny 85 29.4 54 12.2 35 35 ESE 18 30 29.73 1007 10 16 0.00 0.00
8:53 pm 20:53 Clear 81 27.2 56 13.3 42 42 ESE 15 24 29.75 1007 10 16 0.00 0.00
9:53 pm 21:53 Clear 80 26.7 58 14.4 47 47 ESE 21 33 29.77 1008 10 16 0.00 0.00
10:53 pm 22:53 Clear 76 24.4 59 15 56 56 ESE 22 35 29.74 1007 10 16 0.00 0.00
11:53 pm 23:53 Clear 74 23.3 58 14.4 57 57 ESE 20 31 29.72 1007 10 16 0.00 0.00

Powered by AerisWeather